Location: Favalello
(42.2939°N, 9.2706°E)
Time: 02:53:16
(UTC+00:00)

Cosmos 2333 Rocket - Pass Details

Date: 06 December 2019
Orbit: 837 x 864 km, 70.8° (Epoch: 19 January)

Event Time Altitude Azimuth Distance (km) Brightness Sun altitude
Rises 18:18:38 0° 249° (WSW) 3,416 6.6 -26.6°
Reaches altitude 10° 18:21:48 10° 266° (W) 2,489 5.6 -27.2°
Maximum altitude 18:25:51 19° 312° (NW) 1,918 4.5 -27.9°
Drops below altitude 10° 18:29:55 10° 357° (N) 2,509 4.6 -28.7°
Enters shadow 18:30:10 - 359° (N) 2,572 4.7 -28.7°
